Wind_Speed
8 11 10 14 15 19 19 21 26 25 28 24 26 32 32 31 29 30 30 27 27 23 20 23 23 20 20 20 17 17 16 15
9 11 12 14 16 19 22 23 26 25 29 24 27 33 30 28 28 27 26 25 21 18 22 23 22 20 22 21 20 20 18 17
8 11 15 15 16 20 21 24 29 34 35 24 21 26 32 28 25 23 20 17 15 23 23 24 21 21 23 24 25 24 20 19
14 16 17 18 18 22 22 23 29 30 30 23 25 24 26 26 24 24 20 20 25 23 22 22 22 22 26 27 29 28 24 23
11 18 20 22 22 23 27 27 29 28 32 30 32 29 26 27 30 30 25 23 24 21 23 25 26 28 27 30 31 32 28 25
14 14 20 21 21 22 29 30 31 32 35 35 34 29 28 26 29 32 35 32 30 27 28 29 31 30 31 33 34 34 31 28
12 15 16 19 23 24 26 29 32 35 37 37 37 34 31 30 31 34 37 35 35 35 34 35 37 35 37 37 36 34 35 33
13 13 15 20 25 28 30 32 32 36 39 38 38 38 36 33 34 36 36 38 40 40 36 37 38 42 41 39 37 34 33 34
15 16 20 23 26 29 32 32 33 35 38 38 40 36 34 36 33 35 37 35 39 41 42 43 44 44 41 39 36 29 30 34
18 16 23 24 27 33 35 33 34 33 34 35 36 39 36 33 34 34 39 39 39 39 39 40 41 41 39 36 33 30 29 31
13 13 22 27 30 31 33 34 34 33 30 33 34 36 39 39 36 38 41 35 32 31 32 35 36 35 29 28 29 27 27 28
16 15 24 28 26 28 31 34 34 30 31 33 34 37 38 39 39 37 40 37 35 31 31 31 30 26 31 31 33 29 26 26
17 16 22 24 30 29 35 36 36 35 36 46 40 34 34 35 38 41 40 36 31 30 27 24 25 30 32 34 29 26 26 26
12 11 13 21 27 30 34 34 38 40 38 36 33 37 37 41 43 42 39 37 40 36 36 38 32 33 31 32 24 24 26 24
12 11 13 19 26 28 31 34 39 40 38 35 36 39 42 40 42 41 38 37 37 35 36 34 33 34 31 26 24 24 22 19
10 11 11 10 17 25 29 33 33 35 32 33 33 34 35 34 31 32 32 33 32 30 27 28 30 28 25 24 24 22 20 17
13 11 9 8 16 21 23 23 21 23 26 25 25 23 21 19 19 21 23 23 22 23 26 26 23 21 22 22 20 21 20 17
10 14 13 9 12 14 12 13 16 16 18 19 18 17 17 17 17 19 20 19 19 20 20 19 19 18 17 19 19 19 17 17
7 7 7 13 14 13 13 11 11 13 14 14 13 15 17 19 20 20 20 21 21 20 19 18 18 19 19 19 18 17 16 14
Wind_Direction
152 143 159 154 159 169 166 168 164 159 158 161 166 173 174 170 168 170 174 180 186 182 190 194 191 187 192 196 198 198 208 204
164 151 152 174 166 172 169 168 174 173 161 166 169 168 165 172 176 177 178 182 183 183 204 203 200 203 206 206 207 210 209 208
178 169 175 182 176 165 165 168 175 181 179 182 177 175 178 186 185 184 186 191 197 211 214 214 212 213 213 212 212 211 213 211
192 187 196 191 187 188 177 170 175 177 184 190 188 195 198 204 200 194 198 196 214 217 222 223 222 225 218 219 217 218 216 215
189 198 192 193 188 191 193 188 181 183 191 193 190 199 210 213 213 212 225 233 233 233 239 238 239 230 227 229 227 226 226 218
193 196 196 193 188 188 195 195 194 193 195 201 199 203 216 221 225 229 227 242 240 247 253 248 240 238 240 236 235 231 231 229
190 195 195 193 197 198 198 199 202 206 208 207 207 209 213 221 228 231 233 239 239 246 255 252 245 246 244 241 241 239 236 233
185 185 189 197 194 196 196 198 202 206 208 210 210 212 212 218 224 227 233 240 245 249 248 245 245 245 247 245 243 243 236 236
198 195 195 199 198 199 198 203 206 206 209 211 213 216 219 224 228 230 235 235 239 242 245 246 247 247 248 247 246 240 235 239
203 198 199 199 201 202 203 205 209 210 212 213 216 219 225 230 236 238 241 240 241 247 246 247 246 246 247 254 243 235 233 236
205 200 203 207 207 206 206 210 213 214 217 221 223 225 230 234 236 240 240 242 243 246 255 255 250 249 253 250 234 232 229 232
204 205 205 207 207 205 208 213 214 217 220 226 230 231 232 235 237 238 241 240 235 237 248 254 255 264 259 229 228 228 223 224
206 204 204 199 206 203 208 212 213 214 218 228 224 231 233 236 239 236 239 232 229 234 239 237 243 246 234 221 219 222 221 217
209 206 204 208 207 208 211 213 217 216 219 227 228 232 234 238 240 241 236 229 229 229 229 235 231 240 240 225 224 222 218 217
195 206 210 212 213 210 211 216 217 219 219 222 221 223 230 234 239 238 234 226 228 223 223 233 238 235 230 215 215 212 211 208
200 197 203 201 206 209 211 216 215 214 211 216 218 222 227 229 230 230 225 222 221 220 223 224 224 214 208 209 208 204 193 181
180 202 192 193 198 199 202 201 206 204 193 195 204 206 211 214 213 214 210 208 207 215 210 203 195 201 208 206 199 182 178 174
183 193 199 190 158 172 174 174 186 182 186 190 193 191 186 193 200 203 203 204 198 188 187 189 185 188 179 175 176 173 168 168
188 154 121 125 132 140 139 152 163 160 155 161 170 175 179 181 181 181 181 181 181 177 170 172 165 158 162 164 166 165 160 161
Height
755 759 760 760 762 765 769 771 774 777 783 787 792 796 799 803 806 810 814 817 821 823 827 831 833 834 839 842 845 847 850 852
756 758 762 764 766 767 770 772 776 781 785 789 794 795 799 803 808 811 814 818 820 821 827 831 832 834 837 840 844 846 849 851
753 756 762 764 766 767 770 774 778 782 788 792 795 798 802 805 807 807 811 814 817 825 827 830 830 833 836 838 842 844 846 848
754 758 759 762 762 766 770 773 777 783 789 792 795 799 801 804 805 807 811 815 822 823 825 828 829 831 833 836 838 840 841 844
750 756 757 758 759 765 768 771 777 781 786 789 792 796 799 799 801 806 812 814 817 819 822 823 825 827 828 832 835 836 839 839
744 746 748 751 758 760 763 767 772 777 782 787 789 792 796 798 800 802 805 810 811 813 816 818 820 822 823 827 830 831 833 835
738 741 745 748 752 756 759 763 767 773 777 781 783 788 791 794 797 798 800 802 803 805 808 812 815 817 820 821 824 825 827 829
732 737 741 745 748 753 758 763 767 771 775 778 780 782 785 789 792 793 796 796 797 799 804 808 808 810 812 815 816 818 821 823
724 728 735 740 744 748 753 756 760 764 767 770 774 777 780 784 787 789 790 792 793 796 798 801 802 804 806 808 809 811 813 816
715 722 728 734 739 741 746 751 755 759 763 767 770 774 778 780 782 784 785 787 789 791 793 794 795 795 798 802 803 804 806 809
714 718 722 726 729 736 742 747 751 756 761 764 766 769 772 775 777 776 778 781 784 788 792 791 791 792 794 795 799 795 802 804
705 708 713 719 726 731 736 740 744 750 755 758 762 763 764 765 767 769 770 773 774 777 782 784 786 785 785 787 793 793 795 799
696 701 705 713 716 722 724 729 735 740 746 744 749 756 757 759 760 761 762 765 767 770 774 779 780 780 786 784 784 786 790 795
695 700 702 705 709 713 717 721 724 729 736 739 742 743 748 748 749 752 755 758 759 759 764 768 769 774 777 779 779 783 788 792
692 695 696 698 701 704 708 711 714 718 725 729 731 733 736 740 743 745 747 751 754 756 756 761 765 766 769 773 777 782 786 789
687 689 690 692 696 698 702 704 707 710 716 720 724 728 732 735 739 741 743 746 748 750 753 758 760 762 766 771 776 780 784 789
681 682 683 685 687 690 695 699 704 709 712 717 721 725 729 733 736 740 741 743 744 748 751 754 757 760 765 770 775 779 783 788
673 675 676 679 684 690 696 698 701 707 712 716 720 724 727 730 732 735 738 740 743 746 750 753 756 761 766 771 776 781 783 787
667 671 677 683 687 694 699 702 706 709 713 717 720 724 726 729 732 734 738 741 743 746 749 753 758 763 768 772 776 780 783 786